SES-8

Last updated on Jan. 29, 2020, 4:37 a.m. UTC

1 39460U 13071A   20028.93714341 -.00000270  00000-0  00000-0 0  9998
2 39460   0.0645 260.7401 0001063  91.1703 208.0755  1.00270456 21139
UTC
Height (km)
Latitude
Longitude
Inclination
Orbital Period
UTC large
Height (km)
Speed (km/s)
/
Latitude / Longitude
Inclination (degrees)
Orbital Period (minutes)
Azimuth
Elevation
Range (km)
Doppler Factor
iOS Compass Heading
iOS Angle

Next 30 passes for location: Hong Kong

Rise time Rise Azimuth (degrees) Set time Set Azimuth (degrees) Duration Max altitude (degrees)

No matching passes for this satellites